Location: Waco, TX
(31.5480°N, 97.1670°W)
Time: 03:29:43
(UTC-05:00)

ISS - Pass Details

Date: 06 January 2018
Orbit: 402 x 409 km, 51.6° (Epoch: 21 August)

Event Time Altitude Azimuth Distance (km) Brightness Sun altitude
Rises 02:36:12 0° 239° (WSW) 2,322 - -61.5°
Reaches altitude 10° 02:38:21 10° 247° (WSW) 1,469 - -61.1°
Maximum altitude 02:41:29 40° 319° (NW) 625 - -60.4°
Drops below altitude 10° 02:44:39 10° 30° (NNE) 1,490 - -59.8°
Sets 02:46:50 0° 38° (NE) 2,360 - -59.3°
